When you browse on this site, cookies collect data to enhance your experience and personalize the content and advertising you see.
Visit our Privacy Policy to learn more. By continuing to use the site, you agree to this use of cookies and data.
  • In Slovakia
  • List of Countries
  • For 7 days
  • Water Temperature
  • Weather Map
  • Weather Widgets
  • user-avatar
    Login

    Hourly Weather Benguela

    Today, 22 September, Sunday

    Time Temperature Precipitation Wind Pressure Humidity
    00:00 +22°C° 0 mm 1 mps 759 mmHg 88%
    01:00 +20°C° 0 mm 0 mps 759 mmHg 92%
    02:00 +20°C° 0 mm 0 mps 759 mmHg 90%
    03:00 +20°C° 0 mm 0 mps 759 mmHg 88%
    04:00 +20°C° 0 mm 0 mps 758 mmHg 86%
    05:00 +21°C° 0 mm 0 mps 759 mmHg 84%
    06:00 +21°C° 0 mm 0 mps 759 mmHg 82%
    07:00 +24°C° 0 mm 1 mps 760 mmHg 79%
    08:00 +26°C° 0 mm 1 mps 759 mmHg 68%
    09:00 +28°C° 0 mm 2 mps 759 mmHg 58%
    10:00 +31°C° 0 mm 3 mps 759 mmHg 48%
    11:00 +31°C° 0 mm 3 mps 758 mmHg 48%
    12:00 +32°C° 0 mm 4 mps 757 mmHg 48%
    13:00 +33°C° 0 mm 5 mps 757 mmHg 48%
    14:00 +32°C° 0 mm 4 mps 756 mmHg 51%
    15:00 +30°C° 0 mm 4 mps 756 mmHg 54%
    16:00 +29°C° 0 mm 4 mps 756 mmHg 57%
    17:00 +27°C° 0 mm 4 mps 757 mmHg 67%
    18:00 +24°C° 0 mm 3 mps 757 mmHg 78%
    19:00 +21°C° 0 mm 3 mps 758 mmHg 88%
    20:00 +21°C° 0 mm 2 mps 758 mmHg 90%
    21:00 +20°C° 0 mm 2 mps 759 mmHg 92%
    22:00 +21°C° 0 mm 1 mps 759 mmHg 93%
    23:00 +21°C° 0 mm 1 mps 759 mmHg 93%

    Tomorrow, 23 September, Monday

    Time Temperature Precipitation Wind Pressure Humidity
    00:00 +20°C° 0 mm 1 mps 759 mmHg 93%
    01:00 +20°C° 0 mm 1 mps 759 mmHg 93%
    02:00 +20°C° 0 mm 1 mps 759 mmHg 93%
    03:00 +20°C° 0 mm 1 mps 758 mmHg 92%
    04:00 +20°C° 0 mm 1 mps 758 mmHg 91%
    05:00 +21°C° 0 mm 1 mps 759 mmHg 88%
    06:00 +20°C° 0 mm 0 mps 759 mmHg 84%
    07:00 +21°C° 0 mm 0 mps 759 mmHg 81%
    08:00 +25°C° 0 mm 1 mps 759 mmHg 71%
    09:00 +28°C° 0 mm 2 mps 759 mmHg 60%
    10:00 +30°C° 0 mm 3 mps 759 mmHg 50%
    11:00 +31°C° 0 mm 3 mps 758 mmHg 49%
    12:00 +32°C° 0 mm 4 mps 757 mmHg 49%
    13:00 +33°C° 0 mm 4 mps 756 mmHg 48%
    14:00 +32°C° 0 mm 4 mps 756 mmHg 51%
    15:00 +30°C° 0 mm 4 mps 756 mmHg 55%
    16:00 +29°C° 0 mm 4 mps 756 mmHg 58%
    17:00 +27°C° 0 mm 3 mps 757 mmHg 68%
    18:00 +25°C° 0 mm 2 mps 757 mmHg 78%
    19:00 +23°C° 0 mm 1 mps 758 mmHg 87%
    20:00 +22°C° 0 mm 1 mps 759 mmHg 89%
    21:00 +22°C° 0 mm 1 mps 759 mmHg 90%
    22:00 +21°C° 0 mm 2 mps 760 mmHg 91%
    23:00 +21°C° 0 mm 2 mps 760 mmHg 91%

    Day after tomorrow, 24 September, Tuesday

    Time Temperature Precipitation Wind Pressure Humidity
    00:00 +21°C° 0 mm 2 mps 760 mmHg 91%
    01:00 +21°C° 0 mm 2 mps 759 mmHg 92%
    02:00 +21°C° 0 mm 1 mps 759 mmHg 92%
    03:00 +21°C° 0 mm 1 mps 759 mmHg 92%
    04:00 +21°C° 0 mm 1 mps 759 mmHg 92%
    05:00 +22°C° 0 mm 1 mps 759 mmHg 87%
    06:00 +23°C° 0 mm 1 mps 759 mmHg 81%
    07:00 +24°C° 0 mm 2 mps 760 mmHg 76%
    08:00 +27°C° 0 mm 2 mps 759 mmHg 65%
    09:00 +30°C° 0 mm 3 mps 759 mmHg 54%
    10:00 +33°C° 0 mm 3 mps 758 mmHg 43%
    11:00 +33°C° 0 mm 4 mps 758 mmHg 45%
    12:00 +33°C° 0 mm 4 mps 757 mmHg 47%
    13:00 +33°C° 0 mm 4 mps 756 mmHg 49%
    14:00 +32°C° 0 mm 4 mps 756 mmHg 53%
    15:00 +30°C° 0 mm 4 mps 755 mmHg 57%
    16:00 +28°C° 0 mm 4 mps 755 mmHg 61%
    17:00 +27°C° 0 mm 3 mps 756 mmHg 69%
    18:00 +25°C° 0 mm 3 mps 757 mmHg 77%
    19:00 +24°C° 0 mm 2 mps 758 mmHg 86%
    20:00 +24°C° 0 mm 2 mps 759 mmHg 83%
    21:00 +24°C° 0 mm 1 mps 760 mmHg 80%
    22:00 +25°C° 0 mm 1 mps 760 mmHg 77%
    23:00 +24°C° 0 mm 1 mps 760 mmHg 82%

    25 September, Wednesday

    Time Temperature Precipitation Wind Pressure Humidity
    00:00 +23°C° 0 mm 1 mps 760 mmHg 87%
    01:00 +21°C° 0 mm 1 mps 759 mmHg 92%
    02:00 +21°C° 0 mm 1 mps 759 mmHg 92%
    03:00 +19°C° 0 mm 0 mps 759 mmHg 92%
    04:00 +18°C° 0 mm 0 mps 759 mmHg 93%
    05:00 +20°C° 0 mm 0 mps 759 mmHg 88%
    06:00 +23°C° 0 mm 1 mps 759 mmHg 83%
    07:00 +24°C° 0 mm 1 mps 760 mmHg 78%
    08:00 +26°C° 0 mm 2 mps 760 mmHg 69%
    09:00 +28°C° 0 mm 3 mps 759 mmHg 61%
    10:00 +30°C° 0 mm 4 mps 759 mmHg 52%
    11:00 +30°C° 0 mm 4 mps 758 mmHg 51%
    12:00 +32°C° 0 mm 4 mps 758 mmHg 50%
    13:00 +32°C° 0 mm 4 mps 757 mmHg 50%
    14:00 +30°C° 0 mm 4 mps 757 mmHg 53%
    15:00 +29°C° 0 mm 4 mps 756 mmHg 56%
    16:00 +29°C° 0 mm 4 mps 756 mmHg 58%
    17:00 +27°C° 0 mm 3 mps 757 mmHg 68%
    18:00 +25°C° 0 mm 2 mps 758 mmHg 77%
    19:00 +23°C° 0 mm 1 mps 758 mmHg 86%
    20:00 +23°C° 0 mm 1 mps 759 mmHg 87%
    21:00 +20°C° 0 mm 0 mps 760 mmHg 89%
    22:00 +20°C° 0 mm 0 mps 760 mmHg 90%
    23:00 +20°C° 0 mm 0 mps 760 mmHg 91%

    26 September, Thursday

    Time Temperature Precipitation Wind Pressure Humidity
    00:00 +21°C° 0 mm 1 mps 760 mmHg 92%
    01:00 +21°C° 0 mm 1 mps 759 mmHg 93%
    02:00 +21°C° 0 mm 1 mps 759 mmHg 92%
    03:00 +21°C° 0 mm 1 mps 759 mmHg 92%
    04:00 +21°C° 0 mm 1 mps 759 mmHg 92%
    05:00 +22°C° 0 mm 1 mps 759 mmHg 87%
    06:00 +23°C° 0 mm 1 mps 760 mmHg 81%
    07:00 +24°C° 0 mm 1 mps 760 mmHg 76%
    08:00 +26°C° 0 mm 2 mps 760 mmHg 67%
    09:00 +28°C° 0 mm 3 mps 760 mmHg 59%
    10:00 +30°C° 0 mm 3 mps 759 mmHg 50%
    11:00 +32°C° 0 mm 4 mps 759 mmHg 49%
    12:00 +32°C° 0 mm 4 mps 758 mmHg 48%
    13:00 +33°C° 0 mm 5 mps 757 mmHg 47%
    14:00 +32°C° 0 mm 5 mps 757 mmHg 52%
    15:00 +30°C° 0 mm 4 mps 757 mmHg 56%
    16:00 +28°C° 0 mm 4 mps 757 mmHg 60%
    17:00 +27°C° 0 mm 3 mps 757 mmHg 69%
    18:00 +25°C° 0 mm 2 mps 758 mmHg 79%
    19:00 +23°C° 0 mm 1 mps 759 mmHg 88%
    20:00 +23°C° 0 mm 1 mps 760 mmHg 89%
    21:00 +23°C° 0 mm 1 mps 760 mmHg 89%
    22:00 +23°C° 0 mm 1 mps 761 mmHg 89%
    23:00 +23°C° 0 mm 1 mps 761 mmHg 87%

    27 September, Friday

    Time Temperature Precipitation Wind Pressure Humidity
    00:00 +23°C° 0 mm 1 mps 761 mmHg 86%
    01:00 +23°C° 0 mm 1 mps 760 mmHg 84%
    02:00 +23°C° 0 mm 1 mps 760 mmHg 84%
    03:00 +23°C° 0 mm 1 mps 760 mmHg 84%
    04:00 +21°C° 0 mm 0 mps 760 mmHg 83%
    05:00 +22°C° 0 mm 0 mps 761 mmHg 78%
    06:00 +23°C° 0 mm 0 mps 761 mmHg 73%
    07:00 +23°C° 0 mm 0 mps 761 mmHg 68%
    08:00 +28°C° 0 mm 1 mps 760 mmHg 60%
    09:00 +30°C° 0 mm 1 mps 760 mmHg 51%
    10:00 +34°C° 0 mm 2 mps 760 mmHg 42%
    11:00 +34°C° 0 mm 3 mps 759 mmHg 40%
    12:00 +35°C° 0 mm 4 mps 758 mmHg 39%
    13:00 +36°C° 0 mm 5 mps 757 mmHg 37%
    14:00 +35°C° 0 mm 5 mps 757 mmHg 41%
    15:00 +33°C° 0 mm 4 mps 756 mmHg 46%
    16:00 +32°C° 0 mm 4 mps 756 mmHg 50%
    17:00 +29°C° 0 mm 3 mps 757 mmHg 62%
    18:00 +27°C° 0 mm 3 mps 757 mmHg 73%
    19:00 +24°C° 0 mm 2 mps 758 mmHg 85%
    20:00 +24°C° 0 mm 2 mps 759 mmHg 87%
    21:00 +23°C° 0 mm 1 mps 759 mmHg 90%
    22:00 +21°C° 0 mm 0 mps 760 mmHg 92%
    23:00 +23°C° 0 mm 1 mps 760 mmHg 91%
    Show more